Date,TemperatureHighF,TemperatureAvgF,TemperatureLowF,DewpointHighF,DewpointAvgF,DewpointLowF,HumidityHigh,HumidityAvg,HumidityLow,PressureMaxIn,PressureMinIn,WindSpeedMaxMPH,WindSpeedAvgMPH,GustSpeedMaxMPH,PrecipitationSumIn
2013-1-1,39,34,28,29,18,-4,93,55,16,25.24,25.16,20,8,0,0.00
2013-1-2,49,42,36,20,10,3,37,27,18,25.24,25.15,14,5,0,0.00
2013-1-3,52,47,44,24,18,5,37,31,19,25.19,25.15,11,2,0,0.00
2013-1-4,53,47,40,38,24,9,89,44,22,25.21,25.13,10,4,0,0.00
2013-1-5,48,39,30,39,32,-2,98,81,12,25.19,25.04,29,12,0,0.00
2013-1-6,32,30,28,31,29,28,98,98,97,25.20,25.03,11,2,0,0.00
2013-1-7,45,39,30,38,31,13,97,75,31,25.29,25.18,22,8,0,0.00
2013-1-8,59,50,44,37,32,-5,76,53,7,25.20,25.12,27,11,0,0.00
2013-1-9,59,44,26,38,29,10,97,61,14,25.14,24.90,23,8,0,0.00
2013-1-10,26,25,24,25,24,22,96,95,95,25.21,24.94,0,0,0,0.00
2013-1-11,28,26,23,27,25,22,97,96,95,25.27,25.17,0,0,0,0.00
2013-1-12,30,25,20,29,24,18,96,95,93,25.24,25.16,0,0,0,0.00
2013-1-13,30,25,21,24,13,0,94,61,31,25.26,25.19,13,1,0,0.00
2013-1-14,36,30,22,13,8,0,63,40,24,25.37,25.22,21,8,0,0.00
2013-1-15,50,41,31,26,20,9,61,44,28,25.41,25.33,31,12,0,0.00
2013-1-16,60,54,47,28,19,14,33,25,18,25.33,25.17,12,5,0,0.00
2013-1-17,66,59,54,28,16,10,27,19,12,25.17,25.07,13,4,0,0.00
2013-1-18,60,54,50,24,14,3,35,21,14,25.13,25.07,10,2,0,0.00
2013-1-19,58,52,49,18,6,-3,24,15,10,25.17,25.11,17,6,0,0.00
2013-1-20,57,51,48,12,3,-9,22,14,8,25.16,25.10,15,7,0,0.00
2013-1-21,62,54,49,18,1,-14,22,12,6,25.15,25.07,20,8,0,0.00
2013-1-22,57,52,48,15,7,-1,25,16,10,25.08,25.01,30,11,0,0.00
2013-1-23,51,46,38,38,22,3,92,45,14,25.05,24.99,30,12,0,0.00
2013-1-24,47,44,39,46,43,37,99,97,84,25.17,25.01,22,6,0,0.00
2013-1-25,50,46,44,50,46,44,99,99,96,25.16,25.03,9,3,0,0.00
2013-1-26,44,35,28,44,34,16,100,97,44,25.02,24.97,10,3,0,0.00
2013-1-27,31,28,26,31,28,26,98,98,96,25.17,25.01,0,0,0,0.00
2013-1-28,32,29,25,32,29,25,99,97,90,25.29,25.16,1,0,0,0.00
2013-1-29,47,42,32,32,24,12,90,51,30,25.34,25.26,28,13,0,0.00
2013-1-30,54,48,42,34,26,-5,63,45,10,25.31,25.23,28,9,0,0.00
2013-1-31,62,54,49,36,10,-16,42,19,5,25.24,25.13,9,2,0,0.00
2013-2-1,60,54,50,38,17,6,62,24,16,25.15,25.08,11,3,0,0.00
2013-2-2,55,51,49,29,20,13,40,30,22,25.19,25.15,11,5,0,0.00
2013-2-3,56,50,42,29,20,-1,45,32,12,25.16,25.05,13,7,0,0.00
2013-2-4,60,51,42,35,21,8,48,31,20,25.13,25.05,15,5,0,0.00
2013-2-5,52,45,34,38,22,-1,92,44,18,25.06,24.98,23,9,0,0.00
2013-2-6,50,43,37,36,11,-15,70,31,8,25.15,25.06,18,8,0,0.00
2013-2-7,41,32,26,34,25,-2,96,81,16,25.11,25.01,17,9,0,0.00
2013-2-8,28,26,25,27,25,23,96,95,92,25.06,24.94,12,2,0,0.00
2013-2-9,36,30,25,27,20,12,92,68,38,25.14,25.06,17,8,0,0.00
2013-2-10,39,35,31,27,21,14,78,58,47,25.14,25.07,18,8,0,0.00
2013-2-11,43,36,32,24,21,13,72,55,36,25.24,25.08,13,6,0,0.00
2013-2-12,48,42,36,33,21,13,60,44,33,25.31,25.24,15,5,0,0.00
2013-2-13,51,44,38,31,25,19,64,46,36,25.27,25.20,18,7,0,0.00
2013-2-14,58,48,41,32,25,17,64,40,23,25.21,25.15,21,7,0,0.00
2013-2-15,61,53,47,31,26,21,53,36,24,25.23,25.19,17,5,0,0.00
2013-2-16,58,51,46,31,21,13,44,31,20,25.19,25.04,20,7,0,0.00
2013-2-17,54,46,42,31,22,10,58,39,22,25.03,24.96,16,7,0,0.00
2013-2-18,48,40,26,38,16,-17,96,49,7,24.99,24.91,18,9,0,0.00
2013-2-19,30,26,22,29,25,21,96,95,94,24.92,24.80,14,1,0,0.00
2013-2-20,33,28,22,32,25,20,96,90,61,25.14,24.85,17,3,0,0.00
2013-2-21,35,31,26,31,26,11,96,82,39,25.21,25.06,22,7,0,0.00
2013-2-22,44,39,34,30,21,6,73,49,29,25.26,25.20,25,9,0,0.00
2013-2-23,40,34,29,38,28,13,97,80,44,25.23,25.11,29,12,0,0.00
2013-2-24,47,38,29,22,12,2,61,36,22,25.26,25.15,29,9,0,0.00
2013-2-25,52,44,38,32,12,-19,61,31,7,25.26,25.15,18,8,0,0.00
2013-2-26,52,44,35,24,10,-3,59,26,15,25.21,25.10,26,11,0,0.00
2013-2-27,55,48,42,30,12,0,59,25,14,25.30,25.21,21,7,0,0.00
2013-2-28,53,47,42,42,34,22,85,63,36,25.38,25.29,18,7,0,0.00
2013-3-1,60,52,44,41,34,19,76,53,25,25.37,25.23,15,6,0,0.00
2013-3-2,60,52,45,32,25,20,61,34,25,25.24,25.06,25,10,0,0.00
2013-3-3,48,42,37,38,33,24,89,70,40,25.06,25.03,21,9,0,0.00
2013-3-4,53,46,40,38,34,30,81,64,50,25.11,25.02,21,5,0,0.00
2013-3-5,48,39,30,34,21,-6,95,52,14,25.02,24.91,42,14,0,0.00
2013-3-6,35,32,28,34,31,26,97,96,87,25.08,24.91,52,11,0,0.00
2013-3-7,37,31,28,32,27,21,96,86,74,25.03,24.89,21,6,0,0.00
2013-3-8,35,30,27,34,29,26,97,96,83,25.09,24.85,25,11,0,0.00
2013-3-9,42,35,27,36,28,13,97,79,31,25.35,25.10,22,6,0,0.00
2013-3-10,54,47,40,29,16,-5,54,30,11,25.34,25.25,17,7,0,0.00
2013-3-11,60,53,48,30,18,-8,45,26,8,25.24,25.10,20,7,0,0.00
2013-3-12,66,57,49,38,29,13,52,35,20,25.11,25.06,8,4,0,0.00
2013-3-13,70,62,57,44,25,8,44,26,12,25.11,25.05,14,4,0,0.00
2013-3-14,70,61,57,47,26,9,60,29,14,25.08,25.03,18,5,0,0.00
2013-3-15,66,57,46,36,16,-18,64,25,4,25.05,24.99,18,7,0,0.00
2013-3-16,60,54,46,34,16,-32,53,27,2,25.05,24.99,23,10,0,0.00
2013-3-17,56,49,42,30,14,-10,60,28,8,25.09,25.02,25,10,0,0.00
2013-3-18,61,52,46,31,15,-2,54,25,10,25.09,25.03,22,7,0,0.00
2013-3-19,62,50,39,41,35,29,87,58,41,25.09,25.04,27,8,0,0.00
2013-3-20,50,45,40,45,38,25,97,77,41,25.10,25.04,20,7,0,0.00
2013-3-21,51,45,38,39,9,-37,97,32,2,25.08,25.02,20,9,0,0.00
2013-3-22,51,43,38,31,11,-10,70,28,9,25.08,24.99,26,11,0,0.00
2013-3-23,56,48,40,23,8,-6,35,20,11,25.12,25.05,25,9,0,0.00
2013-3-24,62,54,48,38,27,12,50,36,18,25.08,24.96,14,5,0,0.00
2013-3-25,61,53,47,39,19,-33,59,30,2,24.99,24.92,21,7,0,0.00
2013-3-26,57,50,45,43,33,-2,81,57,11,24.95,24.91,14,5,0,0.00
2013-3-27,54,46,41,46,40,31,94,79,60,25.01,24.93,14,5,0,0.00
2013-3-28,57,48,40,45,40,35,92,76,54,25.08,25.00,14,5,0,0.00
2013-3-29,61,52,45,46,37,23,83,59,33,25.07,25.04,16,6,0,0.00
2013-3-30,58,48,39,43,32,18,97,58,29,25.05,24.98,28,7,0,0.00
2013-3-31,46,40,36,41,37,32,97,91,79,25.09,24.97,40,13,0,0.00
2013-4-1,51,41,38,44,40,37,98,95,77,25.15,25.07,19,5,0,0.00
2013-4-2,56,47,40,47,40,29,98,77,57,25.17,25.10,12,3,0,0.00
2013-4-3,66,56,49,49,28,2,69,37,12,25.12,24.99,24,3,0,0.00
2013-4-4,53,46,43,49,40,7,98,85,15,25.08,24.94,26,10,0,0.00
2013-4-5,50,45,40,45,36,19,96,74,32,25.15,25.08,16,8,0,0.00
2013-4-6,48,45,38,45,34,8,92,69,21,25.17,25.13,20,9,0,0.00
2013-4-7,53,44,37,45,39,28,97,83,56,25.14,24.87,34,14,0,0.00
2013-4-8,37,33,28,36,30,26,97,90,68,25.07,24.75,43,12,0,0.00
2013-4-9,49,42,34,31,27,21,76,55,35,25.17,25.05,27,10,0,0.00
2013-4-10,63,54,47,40,30,20,58,41,32,25.21,25.07,24,11,0,0.00
2013-4-11,54,49,42,41,36,19,76,61,25,25.07,24.88,24,10,0,0.00
2013-4-12,66,56,49,39,33,24,62,43,28,24.93,24.87,16,3,0,0.00
2013-4-13,62,55,49,42,23,-25,75,36,3,24.88,24.81,26,12,0,0.00
2013-4-14,56,49,37,37,23,-4,95,43,9,24.89,24.81,32,14,0,0.00
2013-4-15,37,31,25,35,29,18,97,91,47,24.96,24.81,39,16,0,0.00
2013-4-16,36,28,26,29,26,24,96,91,72,25.14,24.97,11,3,0,0.00
2013-4-17,42,42,42,24,24,24,47,47,47,0.00,40.00,7,7,0,0.00
2013-4-18,56,50,47,30,27,22,50,40,27,25.25,25.21,12,5,0,0.00
2013-4-19,62,54,46,38,30,12,48,40,22,25.21,25.08,22,7,0,0.00
2013-4-20,70,59,49,42,30,-14,67,38,4,25.08,24.99,20,6,0,0.00
2013-4-21,71,64,56,35,21,-40,39,22,1,25.02,24.93,11,2,0,0.00
2013-4-22,71,63,57,40,31,19,40,30,20,24.95,24.86,14,5,0,0.00
2013-4-23,70,61,55,44,28,7,55,29,13,24.89,24.84,15,5,0,0.00
2013-4-24,65,58,50,47,36,23,77,45,28,24.86,24.79,14,3,0,0.00
2013-4-25,65,58,52,48,33,16,61,39,20,25.05,24.86,14,4,0,0.00
2013-4-26,67,59,54,36,22,13,46,25,17,25.14,25.06,12,4,0,0.00
2013-4-27,73,65,60,38,29,16,34,26,16,25.14,25.03,13,4,0,0.00
2013-4-28,76,67,62,40,16,-26,44,17,2,25.03,24.89,11,4,0,0.00
2013-4-29,73,66,60,42,34,14,52,31,15,24.88,24.80,18,8,0,0.00
2013-4-30,66,60,54,40,30,1,56,34,11,24.85,24.75,18,8,0,0.00
2013-5-1,70,62,54,34,25,1,37,25,11,25.07,24.86,16,5,0,0.00
2013-5-2,76,65,60,35,27,7,33,24,11,25.12,25.06,16,5,0,0.00
2013-5-3,69,63,60,32,23,-5,29,22,6,25.06,24.84,18,7,0,0.00
2013-5-4,70,62,50,32,26,15,31,25,16,24.83,24.62,23,6,0,0.00
2013-5-5,50,40,36,40,35,18,99,86,27,24.86,24.58,43,21,0,0.00
2013-5-6,42,39,38,41,39,37,99,99,98,25.02,24.86,34,9,0,0.00
2013-5-7,53,43,38,46,41,38,100,93,67,25.08,25.01,15,3,0,0.00
2013-5-8,55,47,42,47,40,34,96,76,58,25.12,25.07,16,5,0,0.00
2013-5-9,61,53,46,48,39,27,75,59,41,25.12,25.08,13,5,0,0.00
2013-5-10,69,62,54,49,42,38,73,50,35,25.13,25.08,16,6,0,0.00
2013-5-11,78,70,62,48,40,29,61,36,22,25.10,25.02,12,4,0,0.00
2013-5-12,79,71,67,49,33,22,42,25,17,25.05,24.96,18,6,0,0.00
2013-5-13,77,68,53,44,30,14,60,27,13,24.99,24.89,17,6,0,0.00
2013-5-14,64,58,47,48,35,14,67,45,17,25.01,24.86,25,13,0,0.00
2013-5-15,60,55,50,38,18,-24,56,29,3,25.01,24.97,24,13,0,0.00
2013-5-16,53,47,42,45,38,8,96,73,16,25.01,24.97,21,13,0,0.00
2013-5-17,53,46,40,40,36,18,96,71,35,25.07,24.98,23,12,0,0.00
2013-5-18,60,52,45,39,18,-9,70,30,8,25.14,25.07,25,10,0,0.00
2013-5-19,64,56,46,41,34,15,74,45,24,25.08,25.02,18,8,0,0.00
2013-5-20,73,62,54,34,28,19,38,27,17,25.02,24.95,18,8,0,0.00
2013-5-21,61,54,44,44,18,-42,62,32,1,24.94,24.88,29,13,0,0.00
2013-5-22,53,43,32,29,12,-46,62,36,1,24.94,24.86,28,9,0,0.00
2013-5-23,51,39,28,35,28,16,95,68,35,25.08,24.92,22,8,0,0.00
2013-5-24,60,51,46,40,22,-1,64,33,11,25.07,24.96,15,5,0,0.00
2013-5-25,52,47,42,37,26,1,72,45,15,25.05,24.95,23,12,0,0.00
2013-5-26,55,46,40,45,38,15,96,77,27,25.12,25.05,23,12,0,0.00
2013-5-27,54,48,44,47,38,12,96,70,25,25.13,25.02,28,13,0,0.00
2013-5-28,58,51,46,50,43,16,98,78,20,25.02,24.97,28,12,0,0.00
2013-5-29,59,52,44,51,33,1,97,56,11,24.98,24.92,25,11,0,0.00
2013-5-30,64,58,50,25,4,-29,25,13,2,24.99,24.95,21,9,0,0.00
2013-5-31,70,63,55,36,23,-29,35,24,2,25.00,24.94,20,8,0,0.00
2013-6-1,77,70,63,39,29,17,32,22,16,24.95,24.80,16,7,0,0.00
2013-6-2,80,71,65,47,37,15,38,30,14,24.79,24.66,9,3,0,0.00
2013-6-3,72,67,60,50,34,12,57,32,12,24.79,24.67,14,5,0,0.00
2013-6-4,77,69,62,52,44,34,55,41,25,24.86,24.78,7,2,0,0.00
2013-6-5,78,72,66,52,44,30,46,37,25,24.87,24.83,10,1,0,0.00
2013-6-6,84,73,66,52,47,38,48,39,27,24.84,24.81,14,3,0,0.00
2013-6-7,86,78,71,46,34,16,36,21,11,24.83,24.77,15,9,0,0.00
2013-6-8,92,83,75,52,39,11,36,22,7,24.78,24.68,16,5,0,0.00
2013-6-9,80,74,59,53,35,-2,41,26,7,24.73,24.67,21,5,0,0.00
2013-6-10,70,60,55,51,30,2,60,35,9,24.89,24.73,29,11,0,0.00
2013-6-11,74,64,56,54,43,20,61,47,19,24.93,24.87,28,7,0,0.00
2013-6-12,71,62,51,40,19,-24,46,21,3,24.95,24.88,19,8,0,0.00
2013-6-13,68,58,51,38,18,-4,42,22,9,25.05,24.95,28,9,0,0.00
2013-6-14,70,62,54,37,20,-16,39,23,4,24.99,24.87,13,6,0,0.00
2013-6-15,72,63,55,40,16,-20,40,20,3,24.95,24.84,20,7,0,0.00
2013-6-16,67,60,55,37,27,19,38,28,22,25.05,24.95,26,12,0,0.00
2013-6-17,66,59,55,44,30,20,55,33,23,25.05,24.99,22,11,0,0.00
2013-6-18,56,48,36,43,34,16,93,60,22,24.99,24.94,27,12,0,0.00
2013-6-19,60,48,37,40,31,17,87,53,26,25.09,24.98,29,10,0,0.00
2013-6-20,64,54,48,38,26,15,59,34,20,25.03,24.98,24,9,0,0.00
2013-6-21,69,59,49,40,28,-2,57,32,8,24.99,24.93,25,9,0,0.00
2013-6-22,72,62,55,42,30,-12,61,31,5,24.94,24.88,22,9,0,0.00
2013-6-23,60,52,47,52,44,30,97,75,40,24.88,24.82,25,14,0,0.00
2013-6-24,60,54,49,51,48,41,99,84,59,24.95,24.83,14,5,0,0.00
2013-6-25,68,59,53,58,53,47,90,81,68,25.00,24.94,15,6,0,0.00
2013-6-26,75,66,58,60,55,50,83,69,54,25.01,24.95,15,4,0,0.00
2013-6-27,82,73,66,58,52,41,63,50,37,25.01,24.97,16,3,0,0.00
2013-6-28,86,76,71,55,47,32,54,37,23,24.99,24.90,18,5,0,0.00
2013-6-29,83,75,70,44,36,27,32,25,19,24.92,24.84,22,10,0,0.00
2013-6-30,86,78,72,45,33,16,31,20,10,24.86,24.78,14,4,0,0.00
2013-7-1,92,81,74,49,33,-10,35,19,3,24.83,24.78,12,4,0,0.00
2013-7-2,91,85,78,50,30,-28,30,15,1,24.85,24.82,8,2,0,0.00
2013-7-3,92,82,78,50,40,29,33,23,16,24.82,24.74,12,4,0,0.00
2013-7-4,87,79,70,56,47,31,46,33,21,24.75,24.71,22,7,0,0.00
2013-7-5,78,72,64,47,27,-13,36,21,3,24.74,24.70,20,9,0,0.00
2013-7-6,80,72,66,46,15,-15,37,13,3,24.75,24.71,13,6,0,0.00
2013-7-7,81,71,66,40,8,-17,26,10,3,24.81,24.74,18,7,0,0.00
2013-7-8,82,71,65,24,-3,-34,13,6,1,24.94,24.81,19,8,0,0.00
2013-7-9,87,78,72,35,27,-21,21,16,2,24.96,24.90,10,4,0,0.00
2013-7-10,82,74,69,42,24,-1,31,17,5,24.91,24.84,16,6,0,0.00
2013-7-11,80,71,64,43,21,0,31,16,7,24.85,24.82,17,5,0,0.00
2013-7-12,80,70,65,44,22,-11,41,19,4,24.87,24.83,13,4,0,0.00
2013-7-13,78,72,66,37,28,10,29,20,11,24.91,24.87,10,3,0,0.00
2013-7-14,78,71,65,41,29,2,34,22,8,24.92,24.86,7,3,0,0.00
2013-7-15,76,70,63,43,33,16,34,26,15,24.83,24.78,17,6,0,0.00
2013-7-16,75,67,62,48,24,-6,41,21,6,24.90,24.80,15,6,0,0.00
2013-7-17,78,70,64,45,26,-13,39,22,4,24.99,24.94,15,2,0,0.00
2013-7-18,82,71,66,37,22,0,28,16,6,24.97,24.91,10,3,0,0.00
2013-7-19,86,76,71,41,19,-20,28,13,2,24.91,24.80,9,3,0,0.00
2013-7-20,90,80,76,41,22,-31,25,14,1,24.81,24.72,8,3,0,0.00
2013-7-21,88,80,71,46,34,23,38,20,13,24.77,24.71,10,2,0,0.00
2013-7-22,82,73,68,53,41,-7,58,34,4,24.87,24.75,17,5,0,0.00
2013-7-23,81,73,68,51,44,27,46,36,21,24.93,24.88,10,3,0,0.00
2013-7-24,83,74,68,50,47,44,47,38,29,24.91,24.87,8,3,0,0.00
2013-7-25,84,76,69,50,46,42,43,35,26,24.94,24.87,11,2,0,0.00
2013-7-26,84,75,70,47,42,18,40,31,12,24.97,24.93,10,3,0,0.00
2013-7-27,84,74,67,46,36,-12,39,26,3,24.94,24.82,13,5,0,0.00
2013-7-28,81,73,68,48,40,29,40,31,22,24.83,24.78,18,6,0,0.00
2013-7-29,80,71,66,49,26,11,39,19,10,24.92,24.79,20,8,0,0.00
2013-7-30,80,72,66,46,38,22,45,31,15,24.97,24.92,8,2,0,0.00
2013-7-31,78,68,58,42,32,6,41,27,11,24.97,24.93,19,6,0,0.00
2013-8-1,69,62,57,38,23,2,36,24,8,25.01,24.94,19,8,0,0.00
2013-8-2,72,66,60,34,16,1,27,15,8,24.96,24.90,14,7,0,0.00
2013-8-3,77,68,63,43,22,-1,42,19,7,24.92,24.87,10,3,0,0.00
2013-8-4,77,68,64,44,26,11,43,22,11,24.92,24.88,9,3,0,0.00
2013-8-5,79,69,64,42,21,2,36,17,8,24.93,24.88,12,4,0,0.00
2013-8-6,76,68,61,47,28,9,44,25,11,24.93,24.88,12,3,0,0.00
2013-8-7,70,62,58,51,33,8,66,37,12,24.99,24.93,12,5,0,0.00
2013-8-8,70,62,57,48,34,16,56,36,20,24.98,24.89,10,4,0,0.00
2013-8-9,72,63,57,49,37,5,57,38,11,24.94,24.88,12,5,0,0.00
2013-8-10,70,62,57,52,40,22,74,47,23,24.99,24.93,14,7,0,0.00
2013-8-11,73,64,59,47,39,28,50,40,28,24.99,24.92,13,3,0,0.00
2013-8-12,76,67,60,44,40,36,49,38,28,24.95,24.91,11,3,0,0.00
2013-8-13,81,72,65,41,34,20,35,26,16,24.94,24.90,10,3,0,0.00
2013-8-14,81,72,67,41,28,9,30,20,10,24.91,24.86,9,3,0,0.00
2013-8-15,81,72,67,48,30,8,42,22,8,24.90,24.86,12,5,0,0.00
2013-8-16,82,74,70,49,25,6,42,18,8,24.92,24.88,12,4,0,0.00
2013-8-17,78,70,64,50,34,18,59,29,11,24.91,24.84,17,6,0,0.00
2013-8-18,84,75,68,44,38,27,40,27,16,24.87,24.80,11,3,0,0.00
2013-8-19,85,74,67,49,45,38,48,36,27,24.85,24.80,16,4,0,0.00
2013-8-20,79,71,61,51,43,19,52,37,17,24.82,24.78,9,2,0,0.00
2013-8-21,75,68,62,40,29,8,39,24,10,24.85,24.81,13,4,0,0.00
2013-8-22,73,66,61,48,36,15,53,34,14,24.86,24.83,22,6,0,0.00
2013-8-23,76,68,62,42,34,0,41,29,7,24.86,24.80,12,5,0,0.00
2013-8-24,70,63,55,49,40,18,74,45,19,24.88,24.81,16,7,0,0.00
2013-8-25,72,63,58,48,43,37,61,48,39,24.92,24.87,16,5,0,0.00
2013-8-26,74,65,57,50,32,-11,60,34,5,24.95,24.87,21,5,0,0.00
2013-8-27,77,67,62,49,40,20,55,38,18,24.87,24.80,10,4,0,0.00
2013-8-28,77,68,62,51,37,19,57,34,17,24.89,24.82,8,3,0,0.00
2013-8-29,78,69,63,49,37,16,50,32,15,24.97,24.89,13,4,0,0.00
2013-8-30,83,73,67,50,47,41,52,39,29,24.98,24.90,10,3,0,0.00
2013-8-31,81,72,65,58,47,26,76,44,19,24.91,24.84,13,4,0,0.00
2013-9-1,74,66,60,60,57,54,89,75,55,24.87,24.82,15,4,0,0.00
2013-9-2,73,64,59,59,56,54,94,77,53,24.90,24.85,11,3,0,0.00
2013-9-3,73,65,56,56,47,38,86,53,38,24.94,24.89,13,3,0,0.00
2013-9-4,77,68,61,52,48,43,70,50,36,24.95,24.89,13,4,0,0.00
2013-9-5,75,68,63,48,35,5,58,32,9,24.92,24.88,17,4,0,0.00
2013-9-6,80,70,64,46,43,25,50,38,20,24.91,24.83,11,3,0,0.00
2013-9-7,83,73,66,45,33,0,44,25,6,24.86,24.81,10,3,0,0.00
2013-9-8,82,74,69,40,29,9,32,20,9,24.83,24.77,9,4,0,0.00
2013-9-9,82,74,68,45,36,22,35,26,15,24.79,24.74,21,6,0,0.00
2013-9-10,80,71,67,46,32,24,35,24,17,24.83,24.74,19,8,0,0.00
2013-9-11,77,69,65,47,30,11,46,25,11,24.90,24.83,12,6,0,0.00
2013-9-12,80,71,64,46,37,30,38,30,21,24.90,24.85,14,4,0,0.00
2013-9-13,76,70,67,42,33,18,34,26,14,24.86,24.76,23,12,0,0.00
2013-9-14,80,73,68,43,28,16,32,19,13,24.78,24.72,16,6,0,0.00
2013-9-15,76,68,64,48,33,7,52,29,10,24.79,24.72,11,4,0,0.00
2013-9-16,75,67,56,50,38,9,55,37,11,24.83,24.77,10,4,0,0.00
2013-9-17,58,51,44,44,36,15,89,60,20,24.92,24.78,26,14,0,0.00
2013-9-18,69,58,50,42,36,8,71,47,11,24.93,24.88,19,7,0,0.00
2013-9-19,78,66,56,39,25,-15,36,22,4,24.89,24.80,10,4,0,0.00
2013-9-20,66,60,52,52,37,22,86,47,22,24.82,24.75,18,9,0,0.00
2013-9-21,53,46,39,49,44,26,98,92,35,24.91,24.80,22,12,0,0.00
2013-9-22,55,47,39,42,38,8,98,73,15,25.04,24.91,22,9,0,0.00
2013-9-23,71,60,51,46,37,5,65,45,14,25.05,24.95,16,6,0,0.00
2013-9-24,67,57,38,49,38,18,96,53,19,24.95,24.85,24,9,0,0.00
2013-9-25,47,41,37,38,34,28,93,78,64,24.93,24.85,31,15,0,0.00
2013-9-26,51,45,38,34,28,20,82,53,38,25.04,24.88,23,9,0,0.00
2013-9-27,60,51,44,32,25,16,50,37,23,25.11,25.04,19,6,0,0.00
2013-9-28,70,61,53,31,23,-10,32,24,6,25.09,25.02,11,2,0,0.00
2013-9-29,71,62,58,44,34,17,51,34,19,25.05,25.00,19,8,0,0.00
2013-9-30,68,60,56,50,37,18,73,44,18,25.01,24.93,16,7,0,0.00
2013-10-1,68,59,48,48,32,-11,96,42,5,24.96,24.91,16,5,0,0.00
2013-10-2,65,58,52,36,13,-30,43,19,2,24.95,24.90,24,7,0,0.00
2013-10-3,55,50,44,29,16,-46,47,31,1,24.98,24.93,28,10,0,0.00
2013-10-4,64,54,47,26,19,10,34,25,18,25.10,24.97,22,7,0,0.00
2013-10-5,71,60,53,23,17,10,26,19,13,25.17,25.10,16,4,0,0.00
2013-10-6,73,62,57,24,16,9,23,17,11,25.09,24.99,16,5,0,0.00
2013-10-7,69,61,53,28,18,5,30,19,11,24.99,24.88,12,4,0,0.00
2013-10-8,64,55,43,40,24,8,62,33,15,24.89,24.70,26,8,0,0.00
2013-10-9,44,40,34,39,35,31,96,84,62,24.87,24.61,24,11,0,0.00
2013-10-10,57,49,42,41,33,31,70,55,39,25.01,24.88,21,6,0,0.00
2013-10-11,61,52,47,39,33,28,58,48,35,25.03,24.97,11,3,0,0.00
2013-10-12,62,52,43,39,34,11,74,51,21,24.98,24.92,21,7,0,0.00
2013-10-13,53,47,40,39,36,32,88,67,49,25.09,24.90,24,8,0,0.00
2013-10-14,61,53,46,36,31,26,64,44,32,25.11,25.03,15,7,0,0.00
2013-10-15,62,56,52,33,29,19,47,36,20,25.04,24.97,10,4,0,0.00
2013-10-16,66,57,53,30,26,22,40,30,21,25.07,25.01,17,6,0,0.00
2013-10-17,66,58,54,29,25,20,35,29,22,25.06,24.98,11,3,0,0.00
2013-10-18,67,60,54,28,22,13,31,23,18,25.03,24.99,12,4,0,0.00
2013-10-19,73,63,58,31,25,18,31,23,14,25.03,24.98,12,4,0,0.00
2013-10-20,70,63,59,30,24,16,33,24,17,24.99,24.91,10,2,0,0.00
2013-10-21,68,63,58,25,19,10,26,18,14,24.95,24.91,16,5,0,0.00
2013-10-22,70,63,59,31,24,13,29,23,15,24.96,24.91,12,5,0,0.00
2013-10-23,70,64,61,32,25,18,30,23,17,24.92,24.88,11,4,0,0.00
2013-10-24,70,64,60,32,22,15,25,20,16,25.00,24.91,8,3,0,0.00
2013-10-25,69,63,59,29,24,16,29,23,17,25.06,25.01,8,2,0,0.00
2013-10-26,68,61,58,32,25,15,38,26,14,25.06,25.00,11,4,0,0.00
2013-10-27,62,53,35,38,29,17,97,45,20,25.00,24.68,40,12,0,0.00
2013-10-28,36,35,33,36,34,33,98,98,97,24.95,24.67,32,16,0,0.00
2013-10-29,41,37,36,40,37,34,99,98,89,25.07,24.95,14,6,0,0.00
2013-10-30,48,43,38,41,36,32,89,79,64,25.15,25.07,14,4,0,0.00
2013-10-31,58,50,43,36,29,13,71,45,19,25.15,25.09,13,6,0,0.00
2013-11-1,66,60,56,32,18,1,39,21,9,25.11,25.00,23,6,0,0.00
2013-11-2,64,57,49,35,23,14,58,28,18,25.00,24.89,19,8,0,0.00
2013-11-3,53,46,38,32,11,-20,72,29,5,24.96,24.88,18,5,0,0.00
2013-11-4,44,40,36,27,18,4,54,41,21,25.10,24.89,21,10,0,0.00
2013-11-5,53,48,42,23,18,13,37,29,23,25.22,25.09,23,10,0,0.00
2013-11-6,66,57,50,34,22,5,53,28,12,25.21,25.14,17,7,0,0.00
2013-11-7,64,58,54,23,14,4,26,18,11,25.13,25.04,10,2,0,0.00
2013-11-8,65,58,55,25,18,-4,27,21,8,25.03,24.94,12,4,0,0.00
2013-11-9,64,56,51,26,14,-16,27,20,5,24.99,24.95,22,6,0,0.00
2013-11-10,63,54,51,24,13,-5,33,20,9,25.06,24.99,23,10,0,0.00
2013-11-11,63,56,52,25,22,15,35,26,19,25.10,25.06,19,8,0,0.00
2013-11-12,66,59,53,35,25,14,40,28,16,25.19,25.11,21,4,0,0.00
2013-11-13,60,55,52,37,28,7,56,36,12,25.16,25.07,21,9,0,0.00
2013-11-14,62,55,46,39,28,-9,63,38,7,25.08,24.84,25,9,0,0.00
2013-11-15,48,43,36,35,32,27,87,68,51,24.84,24.76,29,10,0,0.00
2013-11-16,48,43,39,37,29,7,87,59,21,24.94,24.83,22,11,0,0.00
2013-11-17,51,44,39,41,37,32,87,75,63,25.07,24.95,13,4,0,0.00
2013-11-18,49,43,40,40,37,33,85,78,64,25.11,25.05,20,8,0,0.00
2013-11-19,49,43,38,43,40,34,97,89,72,25.09,25.01,13,6,0,0.00
2013-11-20,48,44,38,48,43,35,98,96,79,25.00,24.89,18,5,0,0.00
2013-11-21,41,38,34,40,36,29,98,91,77,24.98,24.89,21,8,0,0.00
2013-11-22,45,40,34,35,28,20,92,63,43,25.04,24.97,18,6,0,0.00
2013-11-23,49,42,38,36,30,24,82,63,51,25.10,25.01,14,5,0,0.00
2013-11-24,40,39,38,32,30,29,73,70,68,25.10,25.10,14,12,0,0.00
2013-11-26,58,57,56,28,26,24,31,30,28,25.07,25.07,11,6,0,0.00
2013-12-2,62,62,62,14,14,14,15,15,15,0.00,40.00,10,10,0,0.00
2013-12-3,32,27,25,26,23,17,95,85,65,24.93,24.80,23,12,0,0.00
2013-12-4,34,28,23,20,12,0,87,53,30,25.08,24.94,23,7,0,0.00
2013-12-5,33,27,23,10,2,-7,51,33,18,25.17,25.07,19,6,0,0.00
2013-12-6,34,29,24,31,17,-19,96,69,11,25.19,25.05,27,11,0,0.00
2013-12-7,32,25,19,31,24,17,97,95,93,25.18,24.98,24,3,0,0.00
2013-12-8,31,25,16,27,8,-20,94,57,10,25.27,25.17,18,1,0,0.00
2013-12-9,44,35,27,14,-3,-23,31,20,9,25.34,25.24,28,11,0,0.00
2013-12-10,51,47,44,9,4,-7,21,17,10,25.25,25.15,11,5,0,0.00
2013-12-11,54,49,44,16,10,0,26,20,13,25.16,25.12,14,5,0,0.00
2013-12-12,54,47,43,18,6,-2,30,19,14,25.18,25.13,20,8,0,0.00
2013-12-13,49,46,41,22,11,4,41,25,17,25.24,25.15,16,7,0,0.00
2013-12-14,60,52,41,26,15,-12,47,26,5,25.31,25.25,17,7,0,0.00
2013-12-15,66,60,56,13,2,-12,14,9,5,25.29,25.15,11,4,0,0.00
2013-12-16,68,63,59,20,10,-2,19,12,7,25.15,25.05,12,5,0,0.00
2013-12-17,67,62,58,24,17,7,22,17,10,25.09,24.98,13,4,0,0.00
2013-12-18,61,52,33,31,22,14,85,34,17,24.97,24.73,39,10,0,0.00
2013-12-19,35,31,28,32,28,16,97,88,45,24.99,24.65,29,4,0,0.00
2013-12-20,48,39,29,31,12,0,52,34,18,25.08,24.97,27,11,0,0.00
2013-12-21,49,46,43,36,31,26,69,56,44,25.07,25.00,28,11,0,0.00
2013-12-22,53,48,45,28,24,18,51,39,27,25.23,25.07,31,14,0,0.00
2013-12-23,59,53,49,32,25,20,46,34,26,25.31,25.23,17,7,0,0.00
2013-12-24,58,54,50,32,22,2,48,29,11,25.24,25.15,26,11,0,0.00
2013-12-25,65,58,54,26,18,7,27,20,13,25.20,25.15,14,6,0,0.00
2013-12-26,65,58,55,16,8,-3,18,13,8,25.17,25.12,10,3,0,0.00
2013-12-27,64,59,55,14,-4,-18,18,8,4,25.16,25.05,14,4,0,0.00
2013-12-28,56,53,50,7,-1,-11,16,11,6,25.05,25.00,16,8,0,0.00